Location: Newark
(47.5989°N, 4.6950°E)
Time: 23:46:49
(UTC+00:00)

Envisat - Pass Details

Date: 15 November 2019
Orbit: 764 x 766 km, 98.1° (Epoch: 06 December)

Event Time Altitude Azimuth Distance (km) Brightness Sun altitude
Rises 18:04:10 0° 181° (S) 3,220 6.3 -20.0°
Reaches altitude 10° 18:06:33 10° 187° (S) 2,298 5.6 -20.4°
Maximum altitude 18:11:26 48° 261° (W) 996 4.0 -21.2°
Drops below altitude 10° 18:16:22 10° 336° (NNW) 2,314 5.7 -22.0°
Sets 18:18:46 0° 342° (NNW) 3,244 6.4 -22.4°
